Regional Weather Roundup
Issued by NWS

Home | Current Version | Previous Version | Text Only | Print | Product List | Glossary On
Versions: 1 2 3 4 5 6 7 8 9 10 11 12 13 14 15 16 17 18 19 20 21 22 23 24 25 26 27 28 29 30 31 32 33 34 35 36 37 38 39 40 41 42 43 44 45 46 47 48 49 50
000
ASUS46 KPQR 101210
RWROR

OREGON REGIONAL WEATHER ROUNDUP
NATIONAL WEATHER SERVICE PORTLAND OR
500 AM PDT SAT APR 10 2021

NOTE: "FAIR" INDICATES FEW OR NO CLOUDS BELOW 12,000 FEET WITH
NO SIGNIFICANT WEATHER AND/OR OBSTRUCTIONS TO VISIBILITY.

ORZ001>013-101300-
NORTHWEST OREGON


CITY           SKY/WX    TMP DP  RH WIND       PRES   REMARKS
ASTORIA        LGT RAIN  41  35  79 NW15G28   30.17R
6HR MIN TEMP:  41; 6HR MAX TEMP:  47; 6HR PCP:  0.08;

TILLAMOOK      CLOUDY    45  37  76 SW3       30.21S
NEWPORT        CLOUDY    45  43  93 NW14      30.25R
FLORENCE       LGT RAIN  44  42  92 S7        30.25R
PORTLAND       RAIN      45  39  79 W8        30.17R
6HR MIN TEMP:  45; 6HR MAX TEMP:  49; 6HR PCP: TRACE;

VANCOUVER WA   LGT RAIN  45  38  76 W7        30.16R
6HR MIN TEMP:  45; 6HR MAX TEMP:  49; 6HR PCP:  0.02;

SCAPPOOSE      CLOUDY    44  36  73 W6        30.16R
6HR MIN TEMP:  44; 6HR MAX TEMP:  48; 6HR PCP:  0.01;

HILLSBORO      CLOUDY    43  41  93 NW6       30.17R
6HR MIN TEMP:  43; 6HR MAX TEMP:  47; 6HR PCP:  0.01;

AURORA         LGT RAIN  43  40  89 S9G21     30.18R
6HR MIN TEMP:  43; 6HR MAX TEMP:  46; 6HR PCP: TRACE;

MCMINNVILLE    CLOUDY    44  42  93 SW7       30.17R
6HR MIN TEMP:  43; 6HR MAX TEMP:  46; 6HR PCP:  0.05;

SALEM          CLOUDY    42  38  85 SW13      30.19R
6HR MIN TEMP:  42; 6HR MAX TEMP:  45; 6HR PCP:  0.01;

CORVALLIS      LGT RAIN  42  42 100 S9        30.22S
EUGENE         CLOUDY    41  36  82 S8        30.24S
6HR MIN TEMP:  41; 6HR MAX TEMP:  45; 6HR PCP: TRACE;

CRESWELL       CLOUDY    43  37  81 S10       30.23F
$$

ORZ021-028-101300-
SOUTHWEST OREGON


CITY           SKY/WX    TMP DP  RH WIND       PRES   REMARKS
NORTH BEND     CLOUDY    43  41  93 SE8       30.30R
6HR MIN TEMP:  42; 6HR MAX TEMP:  44; 6HR PCP:  0.03;

BROOKINGS      MOCLDY    44  35  70 CALM      30.28S
ROSEBURG       CLOUDY    44  32  62 CALM      30.27R
6HR MIN TEMP:  43; 6HR MAX TEMP:  45;

SEXTON SUMMIT  CLOUDY    29  27  92 N6        30.16S
6HR MIN TEMP:  28; 6HR MAX TEMP:  35;

GRANTS PASS    CLOUDY    43  30  61 CALM      30.28S
MEDFORD          N/A    N/A N/A N/A MISG      30.23R
$$

ORZ014>016-041-101300-
COLUMBIA GORGE


CITY           SKY/WX    TMP DP  RH WIND       PRES   REMARKS
TROUTDALE      CLOUDY    45  38  76 SW16      30.15R
6HR MIN TEMP:  45; 6HR MAX TEMP:  49; 6HR PCP: TRACE;

HOOD RIVER     DRIZZLE   41  37  87 MISG      30.02F
THE DALLES     CLOUDY    44  37  76 NW8       30.02S
6HR MIN TEMP:  44; 6HR MAX TEMP:  50;

$$

ORZ029>031-041-044-049-050-061>064-502-503-505>511-101300-
EASTERN OREGON


CITY           SKY/WX    TMP DP  RH WIND       PRES   REMARKS
MADRAS         PTCLDY    37  27  65 S14G21    30.06S WCI  29
REDMOND        PTCLDY    38  25  59 W6        30.05S
6HR MIN TEMP:  36; 6HR MAX TEMP:  40;

BEND           CLEAR     37  23  56 VRB7G13   30.06S
PRINEVILLE     PTCLDY    36  25  64 W13G18    30.05S WCI  27
KLAMATH FALLS  PTCLDY    35  28  75 SE3       30.10S
6HR MIN TEMP:  34; 6HR MAX TEMP:  45;

LAKEVIEW       PTCLDY    33  18  53 S9        30.09S
HERMISTON      CLEAR     44  29  55 SW14      30.01S
6HR MIN TEMP:  43; 6HR MAX TEMP:  52;

PENDLETON      MOCLDY    45  27  49 SW20G25   30.00F
6HR MIN TEMP:  44; 6HR MAX TEMP:  49;

JOHN DAY       MOCLDY    38  23  54 W5        29.97S
MEACHAM        CLOUDY    37  25  61 MISG      29.97S
6HR MIN TEMP:  33; 6HR MAX TEMP:  37;

LA GRANDE      CLOUDY    39  28  64 W7        30.00S
6HR MIN TEMP:  38; 6HR MAX TEMP:  46;

BAKER CITY     MOCLDY    28  21  75 S3        29.94S
6HR MIN TEMP:  23; 6HR MAX TEMP:  35;

BURNS          PTCLDY    42  12  29 W15G23    29.99
6HR MIN TEMP:  29; 6HR MAX TEMP:  45;

ROME             N/A     35  11  36 S6        29.96F
6HR MIN TEMP:  33; 6HR MAX TEMP:  43;

ONTARIO        MOCLDY    32  20  61 N3        29.96R
6HR MIN TEMP:  32; 6HR MAX TEMP:  42;

$$


OTHER REGIONAL REPORTS

CITY           SKY/WX    TMP DP  RH WIND       PRES   REMARKS
SEATTLE        MOCLDY    42  34  73 S23G30    30.03R
6HR MIN TEMP:  42; 6HR MAX TEMP:  45; 6HR PCP:  0.02;

SPOKANE        PTCLDY    38  26  62 SW20      29.81S WCI  28
6HR MIN TEMP:  38; 6HR MAX TEMP:  48; 6HR PCP: TRACE;

VANCOUVER BC   PTCLDY    37  34  87 W21G28    30.00R WCI  27
PRINCE GEORGE  PTCLDY    25  18  74 S5        29.75R
DAWSON CREEK   CLOUDY    27  21  80 W18G25    29.67R WCI  13
WHITEHORSE     CLOUDY    -2 -11  65 N7        30.07S
BOISE          PTCLDY    38  20  48 SE9       29.93F
6HR MIN TEMP:  38; 6HR MAX TEMP:  47;

REDDING        CLEAR     43  39  86 CALM      30.07R
6HR MIN TEMP:  43; 6HR MAX TEMP:  57;

SAN FRANCISCO  PTCLDY    50  41  71 W17G26    30.12R
6HR MIN TEMP:  50; 6HR MAX TEMP:  51;


$$




USA.gov is the U.S. government's official web portal to all federal, state and local government web resources and services.